TimeCST,TemperatureF,Dew PointF,Humidity,Sea Level PressureIn,VisibilityMPH,Wind Direction,Wind SpeedMPH,Gust SpeedMPH,PrecipitationIn,Events,Conditions,WindDirDegrees,DateUTC
12:40 AM,61.0,61.0,100,30.07,10.0,ESE,5.8,-,N/A,,Overcast,120,2014-02-02 06:40:00
12:53 AM,61.0,61.0,100,30.07,10.0,ESE,6.9,-,N/A,,Overcast,120,2014-02-02 06:53:00
1:20 AM,61.0,61.0,100,30.07,10.0,ESE,5.8,-,N/A,,Overcast,110,2014-02-02 07:20:00
1:53 AM,61.0,61.0,100,30.07,3.0,SE,6.9,-,N/A,,Overcast,130,2014-02-02 07:53:00
2:43 AM,61.0,61.0,100,30.06,9.0,ESE,8.1,-,N/A,,Overcast,120,2014-02-02 08:43:00
2:53 AM,61.0,61.0,100,30.06,10.0,ESE,5.8,-,N/A,,Overcast,120,2014-02-02 08:53:00
3:53 AM,62.1,61.0,96,30.06,10.0,ESE,5.8,-,N/A,,Overcast,110,2014-02-02 09:53:00
4:53 AM,62.1,61.0,96,30.05,9.0,East,5.8,-,N/A,,Overcast,100,2014-02-02 10:53:00
5:50 AM,62.6,60.8,94,30.06,10.0,East,4.6,-,N/A,,Overcast,100,2014-02-02 11:50:00
5:53 AM,61.0,60.1,97,30.07,10.0,ESE,5.8,-,N/A,,Overcast,110,2014-02-02 11:53:00
6:53 AM,62.1,60.1,93,30.07,10.0,ESE,8.1,-,0.00,,Overcast,110,2014-02-02 12:53:00
7:01 AM,62.1,60.1,93,30.07,10.0,ESE,9.2,-,N/A,,Overcast,120,2014-02-02 13:01:00
7:53 AM,61.0,60.1,97,30.08,10.0,SE,12.7,-,0.04,,Overcast,130,2014-02-02 13:53:00
8:29 AM,60.1,60.1,100,30.08,9.0,ESE,13.8,-,N/A,,Overcast,120,2014-02-02 14:29:00
8:42 AM,60.1,59.0,96,30.08,3.0,SE,11.5,-,0.02,Rain,Heavy Rain,130,2014-02-02 14:42:00
8:45 AM,60.1,59.0,96,30.08,1.8,SE,15.0,21.9,0.08,Rain,Heavy Rain,130,2014-02-02 14:45:00
8:53 AM,60.1,60.1,100,30.09,2.5,ESE,10.4,21.9,0.08,Rain,Light Rain,120,2014-02-02 14:53:00
9:01 AM,61.0,60.1,97,30.08,10.0,ESE,11.5,-,0.00,,Overcast,110,2014-02-02 15:01:00
9:15 AM,61.0,60.1,97,30.09,6.0,ESE,11.5,-,0.00,,Overcast,120,2014-02-02 15:15:00
9:32 AM,61.0,61.0,100,30.08,2.0,ESE,11.5,-,0.00,,Overcast,120,2014-02-02 15:32:00
9:53 AM,62.1,61.0,96,30.08,2.0,SE,13.8,20.7,0.00,,Overcast,130,2014-02-02 15:53:00
10:00 AM,62.1,62.1,100,30.07,1.0,SE,12.7,-,N/A,,Overcast,130,2014-02-02 16:00:00
10:15 AM,62.1,61.0,96,30.07,0.8,SE,12.7,20.7,N/A,,Overcast,130,2014-02-02 16:15:00
10:37 AM,62.1,62.1,100,30.07,1.0,SE,12.7,-,N/A,,Overcast,130,2014-02-02 16:37:00
10:53 AM,62.1,62.1,100,30.07,1.5,SE,11.5,-,N/A,,Overcast,130,2014-02-02 16:53:00
11:14 AM,62.1,62.1,100,30.05,2.5,ESE,12.7,18.4,N/A,,Overcast,120,2014-02-02 17:14:00
11:23 AM,63.0,62.1,97,30.05,3.0,ESE,11.5,-,N/A,,Overcast,120,2014-02-02 17:23:00
11:53 AM,63.0,62.1,97,30.04,5.0,SE,11.5,-,N/A,,Overcast,130,2014-02-02 17:53:00
12:05 PM,63.0,62.1,97,30.02,1.0,SE,13.8,-,N/A,,Overcast,130,2014-02-02 18:05:00
12:53 PM,63.0,63.0,100,30.00,1.0,SE,13.8,23.0,N/A,,Overcast,130,2014-02-02 18:53:00
1:00 PM,63.0,63.0,100,29.98,2.5,SE,12.7,-,N/A,,Overcast,140,2014-02-02 19:00:00
1:15 PM,63.0,63.0,100,29.98,1.0,SE,11.5,-,N/A,,Overcast,130,2014-02-02 19:15:00
1:33 PM,63.0,63.0,100,29.97,0.5,SE,13.8,21.9,N/A,Fog,Fog,130,2014-02-02 19:33:00
1:53 PM,63.0,63.0,100,29.97,0.5,SE,12.7,-,N/A,Fog,Fog,140,2014-02-02 19:53:00
2:53 PM,64.0,64.0,100,29.96,1.0,SE,11.5,-,N/A,,Overcast,140,2014-02-02 20:53:00
3:53 PM,64.0,64.0,100,29.96,1.0,SE,11.5,-,N/A,,Overcast,140,2014-02-02 21:53:00
4:00 PM,64.0,64.0,100,29.96,0.8,SE,12.7,18.4,N/A,,Overcast,140,2014-02-02 22:00:00
4:53 PM,64.0,64.0,100,29.98,0.8,SE,10.4,-,N/A,,Overcast,140,2014-02-02 22:53:00
5:53 PM,63.0,63.0,100,29.96,0.5,SE,5.8,-,N/A,Fog,Fog,130,2014-02-02 23:53:00
6:53 PM,63.0,63.0,100,29.96,0.5,SE,5.8,-,N/A,Fog,Fog,140,2014-02-03 00:53:00
7:53 PM,64.0,64.0,100,29.96,0.2,South,6.9,-,N/A,Fog,Fog,170,2014-02-03 01:53:00
8:02 PM,64.9,64.9,100,29.96,0.5,South,8.1,-,N/A,Fog,Fog,170,2014-02-03 02:02:00
8:33 PM,64.9,64.9,100,29.96,1.0,South,8.1,-,N/A,,Mist,180,2014-02-03 02:33:00
8:53 PM,64.9,64.9,100,29.97,1.0,SSW,5.8,-,N/A,,Overcast,200,2014-02-03 02:53:00
9:08 PM,64.9,64.9,100,29.97,0.8,South,8.1,-,N/A,,Mist,180,2014-02-03 03:08:00
9:40 PM,64.9,64.9,100,29.97,1.0,South,8.1,-,N/A,,Mist,180,2014-02-03 03:40:00
9:53 PM,64.9,64.9,100,29.98,1.0,South,9.2,17.3,N/A,,Overcast,190,2014-02-03 03:53:00
10:21 PM,64.0,64.0,100,29.97,0.8,Variable,5.8,-,N/A,,Mist,0,2014-02-03 04:21:00
10:53 PM,64.0,64.0,100,29.98,0.5,South,10.4,-,N/A,Fog,Fog,190,2014-02-03 04:53:00
11:53 PM,64.0,64.0,100,29.97,0.8,SSW,6.9,-,N/A,,Mist,200,2014-02-03 05:53:00